BEIDOU-3 M22

Last updated on Oct. 21, 2020, 5:58 a.m. UTC

1 44794U 19078B   20294.83509926 -.00000107  00000-0  10000-3 0  9995
2 44794  55.0343  11.4262 0003237 336.8007 202.7129  1.86232618  6183
UTC
Height (km)
Latitude
Longitude
Inclination
Orbital Period
UTC large
Height (km)
Speed (km/s)
/
Latitude / Longitude
Inclination (degrees)
Orbital Period (minutes)
Azimuth
Elevation
Range (km)
Doppler Factor
iOS Compass Heading
iOS Angle

Next 30 passes for location: Hong Kong

Rise time Rise Azimuth (degrees) Set time Set Azimuth (degrees) Duration Max altitude (degrees)

No matching passes for this satellites